COSMOS 2251 DEB, 34478

Orbit data source: Space-Track

COSMOS 2251 DEB, 34478 is space debris in LEO originally from a launch on Wed, 16 Jun 1993 UTC launched from the Plesetsk Missile And Space Complex (PKMTR). The debris from Iridium 33, an American commercial communications satellite, has been tracked extensively since its accidental collision with the defunct Russian satellite Cosmos 2251 in 2009. This event, occurring at high speed in low Earth orbit (LEO), generated thousands of pieces of space debris, significantly increasing the risk of further collisions. The Iridium 33 debris cloud has impacted space traffic management and orbital debris mitigation strategies, making it a subject of ongoing study in space situational awareness.

Loading next visibility...
Identifier
34478, 1993-036TX
Orbit
LEO
Country
Flag of CISCIS
Related business
Manufacturer
Unknown
Mission
Spacecraft
Bus & Motor
Unknown
Mass
Unknown
Launch date (UTC)
1993-06-16 (33 years ago)
Launch vehicle
Unknown
Launch site
Plesetsk Missile And Space Complex (PKMTR)
Object type
Payload
Rocket body
Debris
Shape & HBR
Unknown shape, 0.1 m
Radar Cross Section
Small (<0.1 m²)

Expand to show TLE details & history
Last TLE update: 12 hours ago

TLE from 12 hours ago
0 COSMOS 2251 DEB
1 34478U 93036TX  26206.52913254  .00279949  00000-0  41499-2 0  9993
2 34478  74.0272 251.6441 0014845 339.4611  20.6005 15.54071679924016
Epoch: 2026-07-25T12:41Z
TLE epoch observation values (Epoch: 2026-07-25T12:41:57.051Z)
Latitude
-0.00005°
Longitude
117.91627°
Altitude
398.179 km
Speed
7.677 km/s
True Right ascension
16h 46m 34s
True Declination
0° 00' 00"
Sunlit
Object was in full shadow at epoch
Visualization orbit readout
Latitude
Unknown
Longitude
Unknown
Altitude
Unknown
Speed
Unknown
Apparent Right ascension
Unknown
Apparent Declination
Unknown
Sunlit
N/A
Visualization observer readout
Local Sidereal Time
14:09:53
Azimuth
Unknown
Elevation
Unknown
Doppler factor
Unknown
Orbital elements
Apogee altitude
412.414 km
Perigee altitude
392.283 km
Semi-major axis
6,780.485 km
Eccentricity
0.00148
Inclination
74.0272°
RAAN
251.6441°
Arg. of periapsis
339.4611°
True anomaly
20.66046°
Mean anomaly
20.6005°
Eccentric anomaly
20.63047°
Mean motion
3.88734 °/min
Orbital period
92.61 mins
BSTAR
0.0041499
Loading maneuver chart data...
Computing Atmospheric mass density...

Documentation

Showing up to 5 results
|